DELTA 1 DEB, 42564

Orbit data source: Space-Track

DELTA 1 DEB, 42564 is space debris in SSO originally from a launch on Sun, 23 Jul 1972 UTC launched from the Air Force Western Test Range (AFWTR). Debris objects in space refer to the collection of defunct objects orbiting the Earth. Examples of debris include non-operational satellites, rocket bodies, and fragments generated from explosions, collisions, or faulty payload assembly.

Loading next visibility...
Identifier
42564, 1972-058JX
Orbit
SSO
Country
Flag of USUS
Related business
Manufacturer
Unknown
Mission
Spacecraft
Bus & Motor
Unknown
Mass
Unknown
Launch date (UTC)
1972-07-23 (54 years ago)
Launch vehicle
Unknown
Launch site
Air Force Western Test Range (AFWTR)
Object type
Payload
Rocket body
Debris
Shape & HBR
Unknown shape, 0.1 m
Radar Cross Section
Small (<0.1 m²)

Expand to show TLE details & history
Last TLE update: 6 days ago

TLE from 6 days ago
0 DELTA 1 DEB
1 42564U 72058JX  26167.18185367  .00006284  00000-0  19669-2 0  9997
2 42564  99.0950 141.9650 0064333 160.8177 265.2900 14.39850446643179
Epoch: 2026-06-16T04:21Z
TLE epoch observation values (Epoch: 2026-06-16T04:21:52.157Z)
Latitude
63.93821°
Longitude
153.03927°
Altitude
774.024 km
Speed
7.471 km/s
True Right ascension
08h 11m 51s
True Declination
63° 48' 09"
Sunlit
Object was in daylight at epoch
Visualization orbit readout
Latitude
Unknown
Longitude
Unknown
Altitude
Unknown
Speed
Unknown
Apparent Right ascension
Unknown
Apparent Declination
Unknown
Sunlit
N/A
Visualization observer readout
Local Sidereal Time
21:38:56
Azimuth
Unknown
Elevation
Unknown
Doppler factor
Unknown
Orbital elements
Apogee altitude
802.041 km
Perigee altitude
710.247 km
Semi-major axis
7,134.281 km
Eccentricity
0.00643
Inclination
99.095°
RAAN
141.965°
Arg. of periapsis
160.8177°
True anomaly
264.55579°
Mean anomaly
265.29°
Eccentric anomaly
264.92285°
Mean motion
3.60179 °/min
Orbital period
99.95 mins
BSTAR
0.0019669
Loading maneuver chart data...
Computing Atmospheric mass density...

Documentation

Showing up to 5 results
|